CW0565 Weather Reports


time (UTC)temp
F
wind
direction
speed
knots
gust
knots
rain 1hr
in
rain 24hr
in
rain mn
in
humidity
%
barometer
mb
20200531075513 66 97 4.3 10.4 0.00 0.00 0.00 38 1031.5
20200531075021 66 69 1.7 9.6 0.00 0.00 0.00 38 1031.5
20200531074514 66 98 5.2 10.4 0.00 0.00 0.00 38 1031.6
20200531074010 65 85 3.5 13.0 0.00 0.00 0.00 38 1031.5
20200531073508 65 112 6.1 14.8 0.00 0.00 0.00 37 1031.6
20200531073009 65 105 8.7 14.8 0.00 0.00 0.00 38 1031.6
20200531072506 65 67 7.0 13.0 0.00 0.00 0.00 38 1031.6
20200531072004 65 5 4.3 13.0 0.00 0.00 0.00 41 1031.5
20200531071504 65 52 5.2 12.2 0.00 0.00 0.00 40 1031.5
20200531070510 65 84 1.7 8.7 0.00 0.00 0.00 43 1031.5
20200531070004 64 65 2.6 10.4 0.00 0.00 0.00 44 1031.4
20200531065559 64 19 1.7 10.4 0.00 0.00 0.00 45 1031.5
20200531065058 64 91 7.0 12.2 0.00 0.00 0.00 44 1031.5
20200531064635 64 113 5.2 12.2 0.00 0.00 0.00 45 1031.4
20200531064059 63 30 3.5 12.2 0.00 0.00 0.00 47 1031.6
20200531063603 63 90 2.6 12.2 0.00 0.00 0.00 48 1031.6
20200531063133 62 57 3.5 7.0 0.00 0.00 0.00 53 1031.6
20200531062551 61 34 3.5 6.1 0.00 0.00 0.00 54 1031.6
20200531062050 60 37 1.7 8.7 0.00 0.00 0.00 56 1031.6
20200531061622 59 27 5.2 8.7 0.00 0.00 0.00 56 1031.6
20200531060547 58 36 4.3 7.8 0.00 0.00 0.00 59 1031.6
20200531060208 58 27 5.2 8.7 0.00 0.00 0.00 61 1031.6
20200531055544 57 26 5.2 8.7 0.00 0.00 0.00 62 1031.5
20200531055042 56 14 4.3 7.8 0.00 0.00 0.00 64 1031.4
20200531054614 56 360 4.3 8.7 0.00 0.00 0.00 64 1031.5
20200531054055 55 24 5.2 9.6 0.00 0.00 0.00 65 1031.4
20200531053544 55 19 5.2 9.6 0.00 0.00 0.00 66 1031.5
20200531053104 55 10 5.2 10.4 0.00 0.00 0.00 66 1031.5
20200531052551 54 16 4.3 7.8 0.00 0.00 0.00 67 1031.4
20200531052039 54 9 4.3 9.6 0.00 0.00 0.00 67 1031.5
20200531051617 53 17 5.2 8.7 0.00 0.00 0.00 68 1031.5
20200531050534 53 350 4.3 10.4 0.00 0.00 0.00 70 1031.4
20200531050034 52 9 4.3 10.4 0.00 0.00 0.00 70 1031.5
20200531045532 52 347 4.3 7.8 0.00 0.00 0.00 71 1031.5
20200531045034 52 355 5.2 8.7 0.00 0.00 0.00 71 1031.5
20200531044610 52 355 5.2 8.7 0.00 0.00 0.00 72 1031.5
20200531044031 51 355 7.0 9.6 0.00 0.00 0.00 73 1031.5
20200531043529 50 355 5.2 9.6 0.00 0.00 0.00 74 1031.5
20200531043057 50 355 6.1 8.7 0.00 0.00 0.00 75 1031.5
20200531042528 50 346 4.3 8.7 0.00 0.00 0.00 74 1031.5
20200531042027 50 340 6.1 8.7 0.00 0.00 0.00 74 1031.6
20200531041616 50 10 6.1 8.7 0.00 0.00 0.00 74 1031.5
20200531040531 50 5 7.0 9.6 0.00 0.00 0.00 74 1031.6
20200531040100 50 330 3.5 9.6 0.00 0.00 0.00 74 1031.5
20200531035524 50 346 5.2 9.6 0.00 0.00 0.00 74 1031.4
20200531035023 50 347 4.3 9.6 0.00 0.00 0.00 74 1031.5
20200531034745 50 337 5.2 9.6 0.00 0.00 0.00 74 1031.4
20200531034021 50 360 5.2 11.3 0.00 0.00 0.00 73 1031.4
20200531033520 50 344 5.2 11.3 0.00 0.00 0.00 74 1031.3
20200531033042 50 9 6.1 10.4 0.00 0.00 0.00 75 1031.2
20200531032527 50 331 6.1 9.6 0.00 0.00 0.00 75 1031.2
20200531032019 50 355 6.1 9.6 0.00 0.00 0.00 74 1031.3
20200531031537 50 342 5.2 9.6 0.00 0.00 0.00 75 1031.3
20200531030520 50 331 5.2 9.6 0.00 0.00 0.00 74 1031.3
20200531030020 50 355 5.2 9.6 0.00 0.00 0.00 74 1031.3
20200531025532 50 341 5.2 8.7 0.00 0.00 0.00 74 1031.3
20200531025020 50 338 5.2 8.7 0.00 0.00 0.00 74 1031.3
20200531024520 50 349 5.2 10.4 0.00 0.00 0.00 74 1031.1
20200531024021 49 348 6.1 10.4 0.00 0.00 0.00 74 1031.2
20200531023519 49 355 5.2 8.7 0.00 0.00 0.00 75 1031.2
20200531023040 49 349 5.2 7.8 0.00 0.00 0.00 75 1031.1
20200531022516 49 346 5.2 8.7 0.00 0.00 0.00 75 1031.1
20200531022019 49 333 5.2 8.7 0.00 0.00 0.00 75 1031.2
20200531021518 49 336 6.1 8.7 0.00 0.00 0.00 76 1031.2
20200531020531 49 333 5.2 9.6 0.00 0.00 0.00 77 1031.1
20200531020025 49 355 6.1 9.6 0.00 0.00 0.00 77 1031.1
20200531015515 49 355 6.1 9.6 0.00 0.00 0.00 76 1031.1
20200531015014 49 5 4.3 8.7 0.00 0.00 0.00 76 1031.1
20200531014557 49 334 5.2 8.7 0.00 0.00 0.00 76 1031.2
20200531014013 49 333 5.2 8.7 0.00 0.00 0.00 75 1031.1
20200531013513 49 340 4.3 9.6 0.00 0.00 0.00 75 1031.1
20200531013019 49 338 6.1 11.3 0.00 0.00 0.00 75 1031.0
20200531012512 49 17 6.1 11.3 0.00 0.00 0.00 75 1031.0
20200531012011 50 355 5.2 9.6 0.00 0.00 0.00 75 1031.0
20200531011534 50 336 5.2 9.6 0.00 0.00 0.00 75 1031.0
20200531010513 50 347 6.1 10.4 0.00 0.00 0.00 75 1031.0
20200531010039 50 360 6.1 9.6 0.00 0.00 0.00 75 1031.0
20200531005528 49 350 6.1 8.7 0.00 0.00 0.00 75 1030.9
20200531005010 49 347 5.2 9.6 0.00 0.00 0.00 76 1030.9
20200531004513 49 348 5.2 10.4 0.00 0.00 0.00 77 1030.9
20200531004008 49 355 6.1 10.4 0.00 0.00 0.00 77 1031.0
20200531003507 49 5 6.1 8.7 0.00 0.00 0.00 77 1030.9
20200531003008 49 340 4.3 8.7 0.00 0.00 0.00 77 1030.9
20200531002506 49 336 3.5 8.7 0.00 0.00 0.00 76 1030.8
20200531002005 50 331 5.2 7.8 0.00 0.00 0.00 75 1030.8
20200531001511 50 360 4.3 7.8 0.00 0.00 0.00 74 1030.8
20200531000514 50 327 3.5 7.0 0.00 0.00 0.00 73 1030.9
20200531000004 51 355 2.6 4.3 0.00 0.00 0.00 72 1031.0
20200530235504 51 355 2.6 4.3 0.00 0.00 0.00 73 1031.0
20200530235003 51 5 2.6 4.3 0.00 0.00 0.00 73 1031.0
20200530234502 51 42 2.6 3.5 0.00 0.00 0.00 72 1031.0
20200530233117 51 47 1.7 3.5 0.00 0.00 0.00 71 1031.0
20200530232559 51 48 1.7 3.5 0.00 0.00 0.00 71 1031.1
20200530232058 52 71 2.6 3.5 0.00 0.00 0.00 70 1031.1
20200530231709 52 89 0.9 3.5 0.00 0.00 0.00 69 1031.0
20200530230610 52 91 1.7 2.6 0.00 0.00 0.00 69 1030.9
20200530230154 53 91 1.7 2.6 0.00 0.00 0.00 68 1030.9
20200530225552 53 91 0.9 2.6 0.00 0.00 0.00 68 1030.8
20200530225052 53 91 0.9 1.7 0.00 0.00 0.00 68 1030.7
20200530224655 53 91 0.9 2.6 0.00 0.00 0.00 67 1030.7
20200530224054 54 91 1.7 2.6 0.00 0.00 0.00 65 1030.6
20200530223548 54 91 0.0 1.7 0.00 0.00 0.00 64 1030.6
20200530223224 54 91 0.0 1.7 0.00 0.00 0.00 64 1030.5
20200530222603 54 92 0.0 2.6 0.00 0.00 0.00 64 1030.5
20200530222100 55 91 0.0 2.6 0.00 0.00 0.00 64 1030.4
20200530221613 55 91 0.9 2.6 0.00 0.00 0.00 63 1030.3
20200530220543 55 92 0.0 0.0 0.00 0.00 0.00 62 1030.3
20200530220135 56 91 0.0 2.6 0.00 0.00 0.00 61 1030.2
20200530215624 56 92 0.0 2.6 0.00 0.00 0.00 61 1030.2
20200530215042 56 92 1.7 2.6 0.00 0.00 0.00 60 1030.1
20200530214627 57 92 0.9 2.6 0.00 0.00 0.00 58 1030.0
20200530214117 58 92 0.0 0.0 0.00 0.00 0.00 56 1030.0
20200530213556 58 92 0.0 0.0 0.00 0.00 0.00 55 1029.9
20200530213151 59 92 0.0 0.0 0.00 0.00 0.00 55 1029.9
20200530212549 59 92 0.0 1.7 0.00 0.00 0.00 55 1029.9
20200530212042 59 92 0.0 2.6 0.00 0.00 0.00 54 1029.9
20200530211634 59 92 0.0 2.6 0.00 0.00 0.00 55 1029.9
20200530210551 59 92 0.9 5.2 0.00 0.00 0.00 54 1029.9
20200530210051 59 92 0.0 1.7 0.00 0.00 0.00 55 1029.9
20200530205554 59 92 0.0 1.7 0.00 0.00 0.00 54 1029.8
20200530205044 60 91 0.0 0.0 0.00 0.00 0.00 53 1029.7
20200530204659 60 92 0.0 0.0 0.00 0.00 0.00 51 1029.7
20200530204055 61 91 0.0 0.0 0.00 0.00 0.00 50 1029.6
20200530203543 62 92 0.0 0.0 0.00 0.00 0.00 48 1029.6
20200530203140 62 92 0.0 0.0 0.00 0.00 0.00 47 1029.5
20200530202540 62 92 0.0 0.0 0.00 0.00 0.00 46 1029.6
20200530202039 63 91 0.0 0.0 0.00 0.00 0.00 45 1029.5
20200530201608 63 91 0.0 0.0 0.00 0.00 0.00 44 1029.4
20200530200544 63 91 0.0 3.5 0.00 0.00 0.00 43 1029.3
20200530200157 63 91 0.0 3.5 0.00 0.00 0.00 43 1029.4
20200530195555 64 91 0.0 2.6 0.00 0.00 0.00 43 1029.3
20200530195122 64 91 0.0 0.9 0.00 0.00 0.00 43 1029.2
20200530194635 64 92 0.0 0.9 0.00 0.00 0.00 43 1029.2
20200530194049 65 91 0.0 0.9 0.00 0.00 0.00 42 1029.2
20200530193541 65 92 0.0 2.6 0.00 0.00 0.00 41 1029.1
20200530193117 66 92 0.0 2.6 0.00 0.00 0.00 40 1029.1
20200530192556 66 91 0.0 0.9 0.00 0.00 0.00 39 1029.0
20200530192059 67 92 0.0 0.9 0.00 0.00 0.00 38 1029.0
20200530191741 67 92 0.0 0.9 0.00 0.00 0.00 38 1029.0
20200530190551 67 91 0.9 5.2 0.00 0.00 0.00 38 1028.9
20200530190112 67 92 0.9 5.2 0.00 0.00 0.00 37 1028.9
20200530185543 67 76 0.9 3.5 0.00 0.00 0.00 37 1028.9
20200530185043 67 76 0.0 1.7 0.00 0.00 0.00 38 1028.8
20200530184643 67 76 0.9 3.5 0.00 0.00 0.00 37 1028.8
20200530184043 67 76 0.9 3.5 0.00 0.00 0.00 37 1028.8
20200530183542 67 75 0.0 2.6 0.00 0.00 0.00 37 1028.8
20200530183108 67 75 0.0 4.3 0.00 0.00 0.00 37 1028.8
20200530182626 67 74 1.7 7.0 0.00 0.00 0.00 36 1028.9
20200530182042 67 56 1.7 7.0 0.00 0.00 0.00 37 1028.9
20200530181636 67 62 3.5 7.0 0.00 0.00 0.00 36 1028.8
20200530180543 67 113 1.7 5.2 0.00 0.00 0.00 37 1028.9
20200530180206 66 121 0.9 3.5 0.00 0.00 0.00 37 1028.9
20200530175546 66 147 0.0 6.1 0.00 0.00 0.00 37 1028.9
20200530175040 67 147 0.0 6.1 0.00 0.00 0.00 36 1028.9
20200530174639 67 104 0.9 5.2 0.00 0.00 0.00 36 1028.9
20200530174039 67 103 0.0 5.2 0.00 0.00 0.00 36 1029.0
20200530173109 67 103 0.9 5.2 0.00 0.00 0.00 35 1028.9
20200530172539 67 103 1.7 7.8 0.00 0.00 0.00 36 1029.0
20200530172042 68 110 3.5 7.8 0.00 0.00 0.00 36 1029.0
20200530171621 67 119 0.0 7.0 0.00 0.00 0.00 37 1029.0
20200530170542 67 127 3.5 8.7 0.00 0.00 0.00 37 1029.0
20200530170122 67 196 2.6 7.0 0.00 0.00 0.00 36 1029.0
20200530165538 68 164 2.6 7.0 0.00 0.00 0.00 35 1029.0
20200530165040 68 82 3.5 7.8 0.00 0.00 0.00 34 1029.1
20200530164553 68 80 4.3 14.8 0.00 0.00 0.00 35 1029.1
20200530164048 68 134 7.8 14.8 0.00 0.00 0.00 35 1029.1
20200530163535 68 112 3.5 9.6 0.00 0.00 0.00 34 1029.1
20200530163135 68 94 2.6 7.0 0.00 0.00 0.00 35 1029.2
20200530162536 68 56 1.7 5.2 0.00 0.00 0.00 36 1029.3
20200530162040 67 94 2.6 7.0 0.00 0.00 0.00 36 1029.2
20200530161744 67 171 2.6 7.0 0.00 0.00 0.00 35 1029.2
20200530160542 68 85 3.5 7.8 0.00 0.00 0.00 35 1029.2
20200530160057 68 166 2.6 7.8 0.00 0.00 0.00 34 1029.2
20200530155534 68 89 0.9 10.4 0.00 0.00 0.00 34 1029.2
20200530155035 68 101 5.2 10.4 0.00 0.00 0.00 33 1029.2
20200530154605 68 184 2.6 9.6 0.00 0.00 0.00 33 1029.2
20200530154035 69 95 2.6 9.6 0.00 0.00 0.00 33 1029.3
20200530153532 69 34 2.6 8.7 0.00 0.00 0.00 33 1029.2
20200530153055 68 113 3.5 10.4 0.00 0.00 0.00 34 1029.2
20200530152532 68 119 7.0 13.0 0.00 0.00 0.00 34 1029.2
20200530152107 68 150 7.8 13.0 0.00 0.00 0.00 33 1029.1
20200530151602 69 124 6.1 12.2 0.00 0.00 0.00 32 1029.1
20200530150535 69 118 4.3 11.3 0.00 0.00 0.00 33 1029.2
20200530150119 69 87 3.5 12.2 0.00 0.00 0.00 34 1029.3
20200530145535 68 107 5.2 12.2 0.00 0.00 0.00 34 1029.2
20200530145037 69 147 6.1 12.2 0.00 0.00 0.00 33 1029.2
20200530144544 69 122 5.2 10.4 0.00 0.00 0.00 32 1029.2
20200530144034 69 109 5.2 11.3 0.00 0.00 0.00 34 1029.3
20200530143533 69 152 3.5 11.3 0.00 0.00 0.00 33 1029.3
20200530143034 69 119 3.5 7.8 0.00 0.00 0.00 32 1029.2
20200530142533 68 116 3.5 13.0 0.00 0.00 0.00 34 1029.2
20200530142040 69 192 6.1 13.9 0.00 0.00 0.00 33 1029.1
20200530141601 69 156 0.9 10.4 0.00 0.00 0.00 33 1029.2
20200530140547 69 151 3.5 8.7 0.00 0.00 0.00 33 1029.2
20200530140039 69 221 2.6 13.9 0.00 0.00 0.00 32 1029.2
20200530135529 69 117 6.1 13.9 0.00 0.00 0.00 33 1029.1
20200530135030 68 139 4.3 10.4 0.00 0.00 0.00 33 1029.2
20200530134531 69 193 5.2 10.4 0.00 0.00 0.00 31 1029.2
20200530134029 69 184 4.3 8.7 0.00 0.00 0.00 32 1029.3
20200530133529 69 196 4.3 10.4 0.00 0.00 0.00 32 1029.3
20200530133109 69 180 2.6 13.9 0.00 0.00 0.00 32 1029.3
20200530132529 68 146 4.3 13.9 0.00 0.00 0.00 32 1029.3
20200530132035 69 173 7.0 13.9 0.00 0.00 0.00 31 1029.3
20200530131533 68 150 5.2 12.2 0.00 0.00 0.00 31 1029.3
20200530130525 69 179 7.0 13.0 0.00 0.00 0.00 31 1029.4
20200530130040 69 145 7.0 13.0 0.00 0.00 0.00 31 1029.4
20200530125525 69 161 7.0 13.9 0.00 0.00 0.00 30 1029.4
20200530125033 70 195 6.1 13.0 0.00 0.00 0.00 30 1029.4
20200530124536 70 158 6.1 13.9 0.00 0.00 0.00 30 1029.4
20200530124024 70 134 7.0 13.9 0.00 0.00 0.00 27 1029.4
20200530123523 71 106 6.1 12.2 0.00 0.00 0.00 28 1029.4
20200530123052 71 126 5.2 13.9 0.00 0.00 0.00 28 1029.5
20200530122523 71 103 5.2 13.9 0.00 0.00 0.00 28 1029.4
20200530122023 71 140 4.3 13.0 0.00 0.00 0.00 28 1029.4
20200530121536 70 119 6.1 13.0 0.00 0.00 0.00 29 1029.5
20200530120523 70 128 7.0 13.9 0.00 0.00 0.00 27 1029.5
20200530120121 71 125 2.6 12.2 0.00 0.00 0.00 28 1029.5
20200530115531 72 126 7.0 9.6 0.00 0.00 0.00 27 1029.6
20200530115031 72 98 2.6 11.3 0.00 0.00 0.00 27 1029.7
20200530114541 71 115 6.1 11.3 0.00 0.00 0.00 28 1029.7
20200530114038 71 135 7.0 10.4 0.00 0.00 0.00 28 1029.7
20200530113521 72 118 6.1 10.4 0.00 0.00 0.00 28 1029.7
20200530113021 72 98 4.3 9.6 0.00 0.00 0.00 28 1029.8
20200530112519 71 102 1.7 10.4 0.00 0.00 0.00 27 1029.7
20200530112021 72 102 7.0 10.4 0.00 0.00 0.00 28 1029.8
20200530111527 72 95 5.2 10.4 0.00 0.00 0.00 28 1029.9
20200530110532 71 112 5.2 10.4 0.00 0.00 0.00 28 1030.2
20200530110126 70 128 6.1 10.4 0.00 0.00 0.00 28 1030.2
20200530105521 71 98 4.3 10.4 0.00 0.00 0.00 28 1030.2
20200530105021 71 327 2.6 10.4 0.00 0.00 0.00 28 1030.3
20200530104530 71 78 3.5 9.6 0.00 0.00 0.00 28 1030.4
20200530104025 71 335 4.3 9.6 0.00 0.00 0.00 28 1030.3
20200530103519 71 118 7.0 13.0 0.00 0.00 0.00 28 1030.3
20200530103038 71 146 6.1 13.0 0.00 0.00 0.00 28 1030.4
20200530102518 71 122 5.2 9.6 0.00 0.00 0.00 29 1030.5
20200530102016 72 69 4.3 7.8 0.00 0.00 0.00 29 1030.5
20200530101548 71 98 2.6 8.7 0.00 0.00 0.00 30 1030.6
20200530100528 71 53 5.2 12.2 0.00 0.00 0.00 28 1030.7
20200530100041 71 78 1.7 9.6 0.00 0.00 0.00 29 1030.8
20200530095523 71 82 4.3 10.4 0.00 0.00 0.00 28 1030.9
20200530095011 70 128 4.3 8.7 0.00 0.00 0.00 29 1030.7
20200530094508 70 111 4.3 9.6 0.00 0.00 0.00 29 1030.8
20200530094005 70 119 7.0 9.6 0.00 0.00 0.00 28 1030.8
20200530093505 70 36 3.5 11.3 0.00 0.00 0.00 30 1030.8
20200530093014 70 95 7.0 11.3 0.00 0.00 0.00 29 1030.8
20200530092503 70 131 6.1 12.2 0.00 0.00 0.00 30 1030.8
20200530092002 70 94 7.0 12.2 0.00 0.00 0.00 31 1030.9
20200530090506 69 22 1.7 8.7 0.00 0.00 0.00 31 1030.9
20200530090001 70 5 4.3 8.7 0.00 0.00 0.00 30 1030.9
20200530085559 70 74 3.5 7.8 0.00 0.00 0.00 31 1030.9
20200530085058 69 36 2.6 7.8 0.00 0.00 0.00 31 1030.9
20200530084639 68 63 2.6 7.8 0.00 0.00 0.00 33 1030.9
20200530084056 68 44 3.5 7.8 0.00 0.00 0.00 33 1030.9
20200530083554 68 90 2.6 7.0 0.00 0.00 0.00 33 1030.9
20200530083205 68 38 2.6 7.8 0.00 0.00 0.00 35 1031.0
20200530082559 68 10 2.6 7.8 0.00 0.00 0.00 34 1031.0
20200530082051 67 51 1.7 5.2 0.00 0.00 0.00 34 1031.1
20200530081652 67 70 1.7 5.2 0.00 0.00 0.00 35 1031.0
20200530080550 66 19 0.9 4.3 0.00 0.00 0.00 37 1031.1
20200530080128 66 65 1.7 7.0 0.00 0.00 0.00 36 1031.2